Alpena, MI

5:55 AM EDT on September 23, 2017 (GMT -0400)
Alpena County Regional

Weather History for KAPN - October, 2014

Change the Weather History Date:

Friday, October 10, 2014

  Actual Average Record
Temperature  
Mean Temperature 44 °F 48 °F  
Max Temperature 53 °F 58 °F 86 °F (1938)
Min Temperature 34 °F 38 °F 17 °F (1929)
Degree Days  
Heating Degree Days 21 17  
Month to date heating degree days 153 152  
Since 1 July heating degree days 500 509  
Cooling Degree Days 0 0  
Month to date cooling degree days 0 0  
Year to date cooling degree days 168 289  
Moisture  
Dew Point 36 °F    
Average Humidity 76    
Maximum Humidity 92    
Minimum Humidity 59    
Precipitation  
Precipitation 0.01 in 0.09 in 1.47 in (1932)
Month to date precipitation 0.90 0.93  
Year to date precipitation 26.95 22.63  
Snow  
Snow 0.00 in 0.00 in - ()
Month to date snowfall 0.0 0.0  
Since 1 July snowfall 0.0 0.0  
Snow Depth 0.00 in    
Sea Level Pressure  
Sea Level Pressure 30.14 in    
Wind  
Wind Speed 6 mph (West)    
Max Wind Speed 17 mph    
Max Gust Speed 24 mph    
Visibility 10 miles    
Events Rain    
T = Trace of Precipitation, MM = Missing Value Source: NWS Daily Summary

Daily Weather History Graph

Daily Weather History Graph

Search for Another Location

Airport or City:

Trip Planner

Search our weather history database for the weather conditions in past years. The results will help you decide how hot, cold, wet, or windy it might be!

Date:

Astronomy

Oct. 10, 2014 Rise Set
Actual Time 7:43 AM EDT 6:58 PM EDT
Civil Twilight 7:14 AM EDT 7:27 PM EDT
Nautical Twilight 6:40 AM EDT 8:01 PM EDT
Astronomical Twilight 6:05 AM EDT 8:35 PM EDT
Moon 8:31 PM EDT (10/10) 10:09 AM EDT (10/10)
Length of Visible Light 12h 13m
Length of Day
11h 14m
Waning Gibbous, 94% of the Moon is Illuminated
Oct 10
Waning Gibbous
Oct 15
Last Quarter
Oct 23
New
Oct 30
First Quarter
Nov 6
Full

Hourly Weather History & Observations

Time (EDT) Temp. Windchill Dew Point Humidity Pressure Visibility Wind Dir Wind Speed Gust Speed Precip Events Conditions
12:54 AM 42.1 °F 39.2 °F 36.0 °F 79% 30.11 in 10.0 mi West 4.6 mph - N/A   Overcast
1:54 AM 39.0 °F 36.8 °F 36.0 °F 89% 30.11 in 10.0 mi West 3.5 mph - N/A   Clear
2:54 AM 37.0 °F 34.5 °F 35.1 °F 93% 30.11 in 10.0 mi WSW 3.5 mph - N/A   Clear
3:54 AM 35.1 °F 32.2 °F 34.0 °F 96% 30.10 in 10.0 mi WSW 3.5 mph - N/A   Clear
4:54 AM 35.1 °F 31.0 °F 34.0 °F 96% 30.10 in 10.0 mi WSW 4.6 mph - N/A   Clear
5:54 AM 36.0 °F - 34.0 °F 93% 30.12 in 10.0 mi Calm Calm - N/A   Scattered Clouds
6:54 AM 37.9 °F - 36.0 °F 93% 30.13 in 10.0 mi Calm Calm - N/A   Overcast
7:54 AM 37.9 °F 33.5 °F 36.0 °F 93% 30.13 in 10.0 mi West 5.8 mph - N/A   Overcast
8:54 AM 41.0 °F 38.0 °F 37.9 °F 89% 30.14 in 10.0 mi West 4.6 mph - N/A   Overcast
9:54 AM 44.1 °F 41.5 °F 37.9 °F 79% 30.15 in 10.0 mi WSW 4.6 mph - N/A   Overcast
10:54 AM 48.0 °F - 37.0 °F 66% 30.15 in 10.0 mi West 10.4 mph 17.3 mph N/A   Mostly Cloudy
11:54 AM 48.9 °F - 35.1 °F 59% 30.14 in 10.0 mi West 10.4 mph - N/A   Scattered Clouds
12:54 PM 50.0 °F - 37.0 °F 61% 30.14 in 10.0 mi NW 10.4 mph 17.3 mph 0.00 in   Mostly Cloudy
1:54 PM 46.0 °F 43.1 °F 39.0 °F 76% 30.15 in 8.0 mi WNW 5.8 mph - 0.00 in Rain Light Rain
2:54 PM 48.9 °F - 37.0 °F 64% 30.14 in 10.0 mi NW 11.5 mph 18.4 mph 0.01 in   Overcast
3:54 PM 52.0 °F - 37.0 °F 57% 30.14 in 10.0 mi NW 12.7 mph 20.7 mph 0.00 in   Overcast
4:54 PM 48.9 °F - 36.0 °F 61% 30.14 in 10.0 mi NNW 15.0 mph 21.9 mph N/A   Overcast
5:54 PM 46.9 °F - 36.0 °F 66% 30.15 in 10.0 mi NW 6.9 mph - N/A   Overcast
6:54 PM 46.0 °F - 36.0 °F 68% 30.15 in 10.0 mi Calm Calm - N/A   Clear
7:54 PM 39.9 °F 37.8 °F 36.0 °F 86% 30.16 in 10.0 mi West 3.5 mph - N/A   Mostly Cloudy
8:54 PM 42.1 °F 40.2 °F 37.0 °F 82% 30.16 in 10.0 mi West 3.5 mph - N/A   Mostly Cloudy
9:54 PM 37.0 °F - 34.0 °F 89% 30.18 in 10.0 mi Calm Calm - N/A   Scattered Clouds
10:54 PM 37.0 °F 34.5 °F 35.1 °F 93% 30.18 in 10.0 mi West 3.5 mph - N/A   Clear
11:54 PM 35.1 °F 31.0 °F 34.0 °F 96% 30.19 in 10.0 mi West 4.6 mph - N/A   Clear